Find Starlink 35663

NORAD ID: 66491 Int'l Des: 2025-263 Owner: SPXS Country: US Constellation: starlink operational
LEOCIRCULAR

Current View

Loading 3D Globe...

About Starlink 35663

Starlink 35663 (NORAD 66491) is a starlink constellation satellite (v2 mini) launched Nov 15, 2025 by SPXS of US. It operates in LEO, CIRCULAR orbit with a mass of 575.00 kg.

Upcoming Passes

Passes for default location (London). Set your location on the main map for personalized predictions.

Altitude History

Loading altitude history...

Two-Line Element Set

1 66491U 25263G 26237.94882778 .00022124 00000-0 81087-3 0 9995
2 66491 43.0001 114.9153 0001378 274.0682 86.0012 15.27588525 44786
Epoch: Aug 25, 2026 • Age: 10 hours

Current Status

Altitude 487.8 km
Apogee / Perigee N/A
Velocity 7.62 km/s
Sub-Earth Point -22.36°S, 152.91°W
Launch Date Nov 15, 2025
Age 0.7 years
Type internet

Technical Details

Classification Payload
Mass 575.00 kg
Dry Mass 530.00 kg
Total Mass 575.00 kg
Length 0.30 m
Diameter 4.10 m
Span 29.00 m
Shape Box + pan
Manufacturer SPXS
Bus Type Starlink V2MO
Phase Status In Orbit
Owner/State SPXS/US

Most Searched